Wind_Speed
6 5 6 7 8 8 8 9 9 9 9 8 8 7 7 7 7 7 7 7 6 5 4 4 4 4 4 5 6 6 6 7 8 8 9 10 11 11 11 12 12 13 13
4 4 5 5 6 7 8 8 9 10 10 9 7 6 6 6 6 6 7 6 6 5 4 4 4 4 5 6 7 8 8 9 10 10 11 11 12 13 13 13 14 14 14
1 1 1 2 3 4 5 6 7 8 8 7 6 5 5 5 5 5 6 6 6 5 5 4 5 6 7 8 9 10 10 11 12 12 13 13 14 14 14 15 15 16 16
2 3 2 2 1 1 2 4 5 7 7 6 5 5 5 5 5 5 5 5 5 5 5 5 6 6 8 9 10 10 11 12 12 13 13 14 15 15 16 16 17 18 18
4 4 4 4 3 1 0 2 3 4 5 5 5 5 5 5 5 5 5 5 5 5 5 5 6 7 8 9 10 10 11 11 11 12 13 14 15 16 17 17 18 18 19
6 6 7 6 5 3 2 0 1 3 3 3 4 4 4 5 5 5 6 6 6 6 6 6 7 8 9 9 10 10 11 11 12 13 13 14 15 16 17 17 18 18 19
10 10 9 8 7 6 5 3 2 1 2 3 3 4 5 5 6 7 7 8 7 7 7 7 8 9 10 10 11 12 12 13 14 15 15 16 16 17 17 17 17 18 18
13 13 12 11 10 8 6 5 4 2 2 2 4 4 5 6 7 8 9 9 9 8 8 8 9 10 11 12 12 13 14 14 14 15 15 16 16 17 17 18 18 18 18
13 13 12 12 11 10 9 7 5 4 3 3 4 5 7 8 8 9 9 10 10 10 10 10 10 10 11 12 12 12 13 13 14 14 15 15 15 16 16 17 17 17 17
10 11 11 11 11 11 9 8 7 6 5 5 5 7 7 8 9 10 10 10 10 10 11 10 10 10 10 10 10 11 11 11 12 12 13 13 14 14 14 15 15 16 16
7 8 8 9 9 9 9 8 8 7 6 6 6 7 8 9 10 10 10 10 10 10 9 9 9 9 9 9 9 9 9 9 10 10 11 11 12 13 14 15 15 16 17
5 6 8 9 9 9 9 9 8 8 7 7 7 8 8 9 10 10 10 10 10 10 10 9 9 9 8 8 8 8 9 10 10 11 12 13 14 15 16 17 18 18 19
5 7 9 10 11 11 10 10 10 9 9 9 9 9 9 10 10 11 12 11 11 11 10 10 10 9 9 9 9 9 10 11 12 13 15 16 17 18 19 21 22 22 23
6 8 10 12 12 13 13 13 12 12 11 12 12 12 12 12 12 13 13 13 13 13 12 12 12 11 11 11 12 12 13 14 15 16 17 19 20 21 22 24 25 27 28
7 10 12 13 14 14 15 15 15 14 14 15 15 15 15 16 15 15 15 16 16 16 15 15 15 15 15 15 16 16 17 17 19 20 20 22 23 24 25 26 28 30 31
9 11 13 15 15 16 16 17 17 17 17 18 18 19 19 19 19 19 19 19 19 20 19 20 20 20 20 20 20 21 21 21 22 23 23 25 26 27 28 30 31 33 34
12 13 15 16 17 17 18 18 19 20 21 21 22 22 23 23 23 24 24 24 24 25 25 25 25 25 25 25 25 25 25 25 24 25 27 28 29 30 32 33 34 35 36
16 16 17 18 19 19 20 20 21 23 24 25 26 27 27 28 29 30 30 30 31 31 30 30 29 29 29 29 28 28 27 26 26 27 28 30 31 33 33 35 36 37 38
20 20 21 21 21 22 23 23 24 26 28 30 31 32 32 33 34 35 36 36 36 35 35 34 32 31 31 31 30 28 27 27 26 28 30 31 33 35 36 37 38 39 40
24 24 24 24 24 25 26 27 29 31 33 35 35 36 36 37 38 39 39 39 39 38 37 35 33 32 32 31 29 27 28 27 28 30 31 32 34 36 39 40 42 42 44
27 28 28 27 27 28 29 31 34 36 38 39 40 40 39 38 38 38 38 39 39 38 37 36 33 31 30 29 28 28 28 29 30 31 33 35 37 39 41 43 46 47 49
29 30 30 30 30 32 33 36 37 40 42 43 43 42 40 37 36 36 35 33 33 34 34 32 30 28 27 26 27 29 30 31 31 34 36 39 41 43 46 48 50 53 54
30 31 32 32 33 35 37 38 40 43 45 45 44 41 39 37 33 31 30 30 29 28 28 27 26 25 26 27 28 31 33 35 37 38 41 44 46 49 51 54 56 58 59
31 31 32 34 36 37 39 40 42 45 48 48 45 39 36 32 29 29 28 28 27 27 26 25 23 25 27 29 32 35 38 41 44 47 48 49 51 54 57 59 61 62 63
31 32 33 35 37 39 40 42 44 46 47 45 43 41 37 34 29 26 26 26 26 26 26 26 27 29 32 34 36 39 42 45 48 51 55 57 58 60 62 63 65 66 66
32 33 34 36 38 39 41 43 42 43 44 42 42 38 37 33 29 26 26 27 27 28 29 29 31 35 37 39 42 45 47 50 52 55 58 60 62 63 65 66 67 67 68
Wind_Direction
268 255 246 244 245 248 252 257 261 266 268 268 267 267 270 271 271 268 264 264 263 261 263 260 263 266 270 278 282 283 282 279 277 274 269 266 264 263 262 261 262 262 264
275 265 256 251 246 247 252 257 262 267 270 272 272 272 271 270 269 265 263 261 259 258 257 256 257 262 268 274 277 279 280 280 279 278 274 270 266 263 260 258 258 260 262
310 282 249 242 241 241 245 252 257 262 265 269 270 272 275 277 273 268 265 259 255 253 251 248 252 258 265 270 274 277 278 279 279 278 276 273 270 267 264 261 260 260 261
73 79 76 70 70 219 235 245 251 255 257 261 266 273 282 284 280 275 268 259 252 248 246 247 253 260 265 269 272 275 277 277 277 276 275 273 272 269 266 264 263 262 261
79 69 60 55 54 59 213 243 248 251 252 256 261 267 273 275 273 268 261 253 251 249 247 249 255 259 262 265 269 271 272 273 274 274 274 274 272 269 267 265 263 264 263
74 62 54 51 52 57 60 30 264 260 255 254 255 257 257 256 255 254 252 250 253 254 253 251 252 255 259 262 266 268 269 271 273 273 272 272 270 268 267 265 263 264 264
74 67 61 58 56 55 55 50 27 325 271 254 251 249 246 246 247 248 250 253 256 256 253 252 252 255 260 265 269 271 272 273 275 275 273 272 270 270 270 269 267 267 267
78 71 65 61 56 52 49 45 34 14 323 273 258 251 248 247 247 251 254 256 260 261 260 260 262 265 268 273 276 278 279 279 279 278 278 276 275 274 274 273 272 270 270
82 74 67 62 58 52 46 40 28 9 342 303 275 261 256 254 255 258 260 262 264 267 270 272 275 276 277 281 284 285 285 285 283 282 281 281 280 279 278 278 278 277 276
78 72 66 59 55 50 42 32 21 5 344 318 293 276 270 266 266 266 267 269 271 274 278 282 283 284 286 289 291 291 292 293 292 290 289 288 287 286 285 283 283 283 284
64 56 51 44 41 38 33 24 12 359 345 325 305 291 282 277 276 275 275 276 278 281 283 283 284 286 288 292 294 295 299 302 303 301 300 298 295 293 290 288 287 286 287
37 28 20 14 12 13 13 10 3 354 343 331 314 300 290 284 281 280 280 282 283 282 281 281 281 281 283 288 293 297 302 305 305 304 302 300 297 295 293 291 290 288 287
356 350 349 347 347 348 350 350 348 346 339 329 318 307 298 290 285 282 279 280 279 277 276 276 278 279 282 287 291 295 298 299 299 298 297 295 293 292 290 289 289 288 287
326 328 329 329 330 333 335 336 338 336 332 325 317 309 300 292 285 281 278 277 276 274 272 271 271 274 278 282 285 288 291 292 292 292 292 291 291 290 289 288 287 286 285
307 314 318 320 321 324 326 329 329 329 325 319 312 305 298 291 285 279 274 273 272 271 268 267 268 269 271 274 277 280 283 285 287 288 289 289 288 287 287 287 286 285 283
293 304 309 312 315 319 322 324 327 326 323 317 308 301 294 288 283 277 272 269 267 267 267 268 268 269 270 271 273 275 277 279 282 283 286 287 287 287 286 286 285 284 282
287 294 301 306 310 316 319 321 324 322 318 313 306 298 290 284 278 273 270 267 266 266 267 267 268 268 269 270 272 273 274 276 278 282 285 286 286 286 286 286 284 283 282
284 288 292 298 303 308 312 315 317 317 314 309 303 295 287 281 275 271 267 265 266 265 266 266 266 267 269 270 271 273 273 275 278 282 285 286 286 286 285 285 284 283 281
282 285 287 290 295 300 304 307 310 310 309 304 298 293 285 278 274 271 266 264 263 263 264 266 268 270 272 273 273 273 275 278 282 284 285 286 286 287 286 285 284 283 282
282 283 284 286 289 292 296 299 301 302 301 299 295 290 283 277 275 274 268 264 263 263 265 265 268 271 273 273 274 278 283 285 287 287 287 288 289 289 288 288 286 285 283
280 282 281 281 284 287 290 292 293 295 295 291 287 287 285 281 278 275 273 270 266 265 268 269 270 272 274 276 279 284 286 290 292 291 291 291 291 290 289 288 287 286 285
276 277 277 278 280 283 284 287 290 290 289 286 286 287 285 283 280 276 273 273 270 270 271 271 273 275 280 286 288 290 293 292 293 295 295 294 293 292 291 290 289 288 287
273 274 274 276 279 281 284 287 291 290 290 290 292 294 292 288 281 278 273 274 278 278 276 274 279 284 289 292 295 296 296 296 296 296 297 296 295 293 292 291 290 289 288
270 271 273 275 277 280 284 287 289 291 292 296 296 299 305 302 293 282 278 280 282 281 280 282 287 292 295 298 298 298 298 299 300 300 298 297 295 294 293 292 291 290 288
267 269 270 272 274 278 282 285 288 291 293 297 302 308 312 311 304 294 286 286 284 283 285 291 293 296 299 299 298 298 297 297 297 298 298 298 297 295 294 293 292 291 289
266 266 267 269 272 275 279 282 286 290 293 299 305 308 312 314 310 303 296 289 286 287 290 293 295 296 297 297 297 297 297 296 296 296 296 296 296 295 295 294 292 291 289
Height
5901 5901 5901 5902 5902 5901 5901 5902 5902 5902 5903 5903 5903 5903 5903 5903 5903 5903 5903 5903 5904 5904 5905 5905 5906 5906 5906 5906 5906 5906 5907 5907 5908 5908 5908 5908 5909 5909 5909 5909 5908 5908 5908
5899 5899 5899 5900 5900 5900 5900 5900 5900 5900 5901 5901 5901 5901 5901 5901 5901 5901 5901 5902 5902 5902 5903 5904 5904 5904 5904 5904 5904 5904 5904 5905 5905 5906 5906 5906 5906 5906 5906 5906 5906 5906 5906
5898 5898 5897 5898 5898 5898 5898 5898 5899 5899 5899 5899 5899 5899 5899 5899 5899 5899 5899 5900 5900 5901 5901 5902 5902 5902 5901 5901 5901 5901 5902 5902 5902 5903 5903 5903 5903 5903 5904 5904 5904 5903 5903
5897 5897 5896 5896 5896 5896 5896 5896 5897 5897 5897 5897 5897 5897 5897 5897 5897 5897 5897 5898 5898 5899 5899 5900 5900 5899 5899 5899 5899 5899 5899 5899 5899 5900 5900 5900 5900 5900 5900 5900 5901 5901 5901
5897 5896 5895 5894 5894 5894 5894 5895 5895 5895 5895 5895 5895 5895 5895 5895 5895 5895 5895 5896 5896 5897 5897 5897 5897 5897 5897 5896 5896 5896 5897 5896 5897 5897 5897 5897 5897 5897 5897 5897 5897 5897 5897
5896 5895 5894 5894 5893 5893 5893 5893 5893 5893 5893 5893 5893 5893 5893 5893 5893 5893 5893 5894 5894 5895 5895 5895 5895 5895 5894 5894 5894 5894 5894 5894 5894 5894 5894 5894 5894 5894 5894 5894 5894 5894 5894
5895 5895 5894 5894 5893 5892 5892 5891 5892 5892 5892 5891 5891 5891 5891 5891 5891 5891 5891 5891 5892 5892 5892 5892 5893 5892 5892 5892 5892 5892 5892 5892 5892 5891 5891 5891 5891 5890 5890 5891 5891 5891 5891
5895 5895 5894 5893 5893 5892 5891 5891 5891 5891 5890 5890 5890 5890 5889 5889 5889 5889 5889 5889 5890 5890 5890 5890 5890 5890 5890 5889 5889 5889 5889 5889 5889 5888 5888 5888 5887 5887 5887 5887 5887 5887 5887
5895 5895 5895 5894 5893 5892 5891 5891 5891 5890 5890 5889 5889 5888 5888 5888 5887 5887 5887 5887 5888 5888 5888 5888 5888 5888 5887 5887 5886 5886 5886 5885 5885 5885 5884 5884 5884 5884 5884 5884 5884 5883 5883
5896 5896 5895 5894 5893 5892 5892 5891 5891 5890 5889 5888 5888 5887 5887 5886 5885 5885 5885 5885 5885 5885 5885 5885 5885 5885 5884 5884 5883 5883 5882 5882 5882 5881 5881 5881 5880 5880 5880 5880 5880 5880 5880
5896 5895 5895 5894 5893 5892 5891 5891 5890 5889 5888 5887 5887 5886 5885 5885 5884 5883 5883 5883 5883 5883 5883 5883 5882 5882 5881 5881 5880 5880 5879 5879 5878 5878 5878 5877 5877 5877 5877 5876 5876 5876 5876
5895 5895 5894 5894 5893 5891 5890 5889 5889 5888 5887 5886 5885 5884 5884 5883 5882 5881 5881 5881 5881 5880 5880 5879 5879 5879 5878 5878 5877 5877 5876 5876 5875 5875 5874 5874 5874 5873 5873 5872 5872 5872 5871
5894 5894 5894 5893 5892 5891 5890 5888 5887 5886 5885 5884 5884 5883 5882 5881 5880 5879 5878 5878 5877 5877 5877 5876 5876 5875 5875 5875 5874 5874 5873 5873 5872 5871 5871 5870 5870 5869 5868 5868 5867 5866 5866
5893 5893 5892 5891 5891 5889 5888 5887 5886 5885 5883 5883 5882 5880 5879 5878 5877 5876 5876 5875 5874 5874 5874 5873 5873 5872 5872 5871 5871 5870 5870 5869 5868 5868 5867 5866 5866 5865 5864 5863 5862 5861 5860
5892 5891 5891 5890 5889 5888 5886 5885 5884 5882 5881 5880 5879 5878 5876 5875 5874 5873 5872 5871 5871 5870 5870 5870 5869 5869 5868 5868 5867 5867 5866 5865 5864 5863 5862 5861 5860 5859 5858 5857 5856 5854 5853
5890 5890 5889 5888 5886 5885 5884 5883 5881 5880 5878 5877 5875 5874 5872 5871 5870 5869 5868 5867 5866 5866 5866 5866 5865 5865 5864 5863 5863 5862 5861 5860 5859 5857 5856 5855 5854 5853 5852 5850 5849 5848 5846
5888 5887 5886 5885 5884 5883 5881 5880 5878 5876 5875 5873 5871 5869 5868 5866 5865 5863 5863 5862 5861 5860 5860 5860 5859 5859 5858 5857 5857 5856 5855 5854 5853 5851 5849 5848 5847 5846 5844 5843 5841 5840 5838
5886 5885 5884 5882 5881 5880 5878 5876 5875 5873 5871 5869 5866 5864 5862 5860 5859 5857 5856 5855 5854 5853 5853 5852 5852 5851 5851 5850 5849 5849 5847 5846 5845 5844 5842 5840 5838 5837 5836 5834 5832 5831 5829
5882 5882 5881 5879 5878 5876 5874 5872 5871 5869 5866 5863 5861 5858 5856 5854 5851 5849 5848 5846 5845 5845 5844 5844 5844 5844 5843 5842 5841 5840 5840 5838 5837 5836 5834 5832 5830 5828 5826 5825 5823 5821 5819
5879 5878 5877 5875 5874 5872 5869 5868 5865 5863 5860 5857 5854 5851 5848 5846 5843 5841 5839 5837 5836 5836 5836 5836 5836 5836 5835 5834 5833 5833 5832 5831 5829 5828 5826 5824 5822 5819 5817 5815 5812 5810 5808
5875 5874 5873 5871 5869 5867 5865 5863 5860 5857 5854 5850 5846 5843 5840 5838 5835 5832 5830 5829 5827 5828 5828 5828 5828 5827 5827 5826 5826 5825 5824 5822 5820 5819 5817 5814 5812 5810 5807 5804 5800 5798 5795
5870 5869 5868 5866 5864 5862 5859 5856 5854 5849 5846 5842 5838 5836 5833 5830 5827 5825 5823 5822 5820 5820 5821 5820 5821 5820 5820 5819 5818 5817 5815 5814 5812 5809 5807 5804 5801 5798 5794 5791 5788 5784 5780
5864 5864 5863 5861 5859 5857 5854 5851 5847 5843 5839 5835 5832 5829 5826 5823 5821 5819 5817 5815 5814 5814 5814 5813 5813 5813 5813 5812 5810 5809 5806 5804 5802 5800 5796 5792 5788 5785 5781 5777 5773 5768 5764
5858 5858 5857 5855 5853 5851 5848 5845 5842 5838 5833 5829 5825 5822 5820 5818 5815 5813 5812 5810 5809 5808 5808 5807 5806 5805 5805 5803 5802 5799 5797 5793 5789 5785 5782 5779 5775 5770 5765 5760 5755 5750 5746
5851 5851 5850 5849 5847 5845 5842 5839 5836 5833 5828 5825 5821 5817 5816 5813 5810 5807 5806 5805 5804 5802 5801 5800 5799 5798 5796 5794 5792 5789 5786 5782 5777 5773 5768 5763 5758 5753 5748 5742 5736 5731 5726
5843 5843 5843 5842 5840 5838 5835 5832 5829 5826 5823 5820 5816 5813 5811 5808 5805 5803 5801 5799 5798 5796 5795 5793 5791 5789 5787 5784 5781 5777 5774 5769 5765 5760 5754 5749 5743 5737 5730 5723 5717 5711 5705